VQJJP KLAX-KLAS

Flight info

Callsign VQJJP
Flight time N/A
Altitude 20000
Route SKYRL2 VALEY SLAPP SSETH DAG CRESO5
Aircraft BE90/L-VGDW/C

Departure

Time 2026-04-24 22:15
Airport Los Angeles International Airport (KLAX)

Arrival

Time N/A
Airport Harry Reid International Airport (KLAS)
Time Latitude Longitude Altitude Speed Heading
2026-04-24 21:46 33.94305 -118.38419 121 ft 0 kts 314°
2026-04-24 22:10 33.94306 -118.38422 121 ft 1 kts 284°
2026-04-24 22:10 33.94291 -118.38413 119 ft 9 kts 123°
2026-04-24 22:10 33.94232 -118.38326 121 ft 13 kts 161°
2026-04-24 22:10 33.94116 -118.38341 121 ft 20 kts 183°
2026-04-24 22:11 33.94061 -118.38223 121 ft 23 kts 86°
2026-04-24 22:11 33.94068 -118.38155 121 ft 0 kts 85°
2026-04-24 22:12 33.94071 -118.38110 121 ft 15 kts 83°
2026-04-24 22:12 33.94071 -118.38013 121 ft 2 kts 125°
2026-04-24 22:13 33.94049 -118.37998 121 ft 9 kts 166°
2026-04-24 22:13 33.93978 -118.38026 120 ft 4 kts 259°
2026-04-24 22:13 33.93977 -118.38034 121 ft 0 kts 259°
2026-04-24 22:14 33.93965 -118.38119 120 ft 37 kts 262°
2026-04-24 22:14 33.93914 -118.38676 121 ft 95 kts 265°
2026-04-24 22:14 33.93831 -118.39616 298 ft 125 kts 262°
2026-04-24 22:14 33.93719 -118.40729 620 ft 141 kts 258°
2026-04-24 22:15 33.93570 -118.41939 961 ft 153 kts 257°
2026-04-24 22:15 33.93389 -118.43262 1268 ft 167 kts 257°
2026-04-24 22:15 33.93195 -118.44674 1588 ft 171 kts 263°
2026-04-24 22:15 33.93581 -118.46018 1934 ft 181 kts 315°
2026-04-24 22:16 33.94720 -118.46711 2265 ft 185 kts 335°
2026-04-24 22:16 33.95821 -118.47506 2591 ft 184 kts 319°
2026-04-24 22:16 33.96789 -118.48533 2916 ft 185 kts 317°
2026-04-24 22:16 33.97767 -118.49553 3243 ft 186 kts 318°
2026-04-24 22:17 33.98733 -118.50548 3556 ft 179 kts 318°
2026-04-24 22:17 33.99670 -118.51519 3879 ft 176 kts 318°
2026-04-24 22:17 34.00585 -118.52466 4193 ft 175 kts 318°
2026-04-24 22:17 34.01510 -118.53425 4522 ft 175 kts 318°
2026-04-24 22:18 34.02434 -118.54379 4836 ft 175 kts 318°
2026-04-24 22:18 34.03390 -118.55370 4956 ft 185 kts 318°
2026-04-24 22:18 34.04386 -118.56398 4994 ft 192 kts 319°
2026-04-24 22:18 34.05533 -118.57158 5053 ft 191 kts 349°
2026-04-24 22:19 34.06836 -118.57113 5335 ft 187 kts 16°
2026-04-24 22:19 34.07973 -118.56427 5610 ft 185 kts 28°
2026-04-24 22:19 34.09094 -118.55694 5885 ft 185 kts 27°
2026-04-24 22:19 34.10229 -118.54937 6160 ft 186 kts 27°
2026-04-24 22:20 34.11363 -118.54170 6415 ft 187 kts 27°
2026-04-24 22:20 34.12488 -118.53411 6674 ft 187 kts 27°
2026-04-24 22:20 34.13630 -118.52644 6936 ft 189 kts 27°
2026-04-24 22:20 34.14782 -118.51867 7202 ft 190 kts 26°
2026-04-24 22:21 34.15944 -118.51086 7466 ft 192 kts 26°
2026-04-24 22:21 34.17066 -118.50331 7729 ft 194 kts 26°
2026-04-24 22:21 34.18288 -118.49512 8012 ft 195 kts 26°
2026-04-24 22:21 34.19480 -118.48705 8289 ft 197 kts 26°
2026-04-24 22:22 34.20681 -118.47894 8567 ft 198 kts 26°
2026-04-24 22:22 34.21888 -118.47081 8845 ft 199 kts 25°
2026-04-24 22:22 34.23094 -118.46269 9126 ft 201 kts 25°
2026-04-24 22:22 34.24318 -118.45444 9435 ft 202 kts 25°
2026-04-24 22:23 34.25586 -118.44727 9728 ft 200 kts 19°
2026-04-24 22:23 34.26866 -118.44017 9999 ft 203 kts 21°
2026-04-24 22:23 34.28147 -118.43279 10260 ft 204 kts 20°
2026-04-24 22:23 34.29426 -118.42572 10517 ft 205 kts 20°
2026-04-24 22:24 34.30737 -118.41852 10787 ft 207 kts 19°
2026-04-24 22:24 34.32052 -118.41123 11057 ft 208 kts 20°
2026-04-24 22:24 34.33367 -118.40395 11322 ft 208 kts 19°
2026-04-24 22:24 34.34683 -118.39669 11598 ft 208 kts 19°
2026-04-24 22:25 34.36004 -118.38936 11870 ft 209 kts 19°
2026-04-24 22:25 34.37317 -118.38208 12136 ft 210 kts 19°
2026-04-24 22:25 34.38659 -118.37463 12416 ft 212 kts 19°
2026-04-24 22:25 34.40013 -118.36717 12696 ft 214 kts 19°
2026-04-24 22:26 34.41376 -118.35962 12980 ft 215 kts 19°
2026-04-24 22:26 34.42728 -118.35209 13263 ft 217 kts 19°
2026-04-24 22:26 34.44107 -118.34444 13547 ft 218 kts 18°
2026-04-24 22:26 34.45488 -118.33655 13825 ft 220 kts 25°
2026-04-24 22:27 34.46529 -118.32268 14089 ft 230 kts 63°
2026-04-24 22:27 34.47020 -118.30397 14352 ft 234 kts 74°
2026-04-24 22:27 34.47406 -118.28492 14593 ft 237 kts 76°
2026-04-24 22:27 34.47800 -118.26539 14858 ft 239 kts 75°
2026-04-24 22:28 34.48219 -118.24573 15127 ft 241 kts 74°
2026-04-24 22:28 34.48642 -118.22595 15377 ft 243 kts 74°
2026-04-24 22:28 34.49064 -118.20606 15649 ft 244 kts 74°
2026-04-24 22:28 34.49480 -118.18633 15920 ft 246 kts 74°
2026-04-24 22:29 34.50338 -118.14571 16468 ft 250 kts 74°
2026-04-24 22:29 34.50772 -118.12512 16749 ft 252 kts 74°
2026-04-24 22:29 34.51207 -118.10451 17033 ft 253 kts 74°
2026-04-24 22:30 34.51644 -118.08371 17315 ft 255 kts 74°
2026-04-24 22:30 34.52084 -118.06278 17600 ft 257 kts 74°
2026-04-24 22:30 34.52524 -118.04187 17880 ft 259 kts 74°
2026-04-24 22:30 34.52970 -118.02060 18174 ft 261 kts 73°
2026-04-24 22:31 34.53420 -117.99916 18431 ft 263 kts 73°
2026-04-24 22:31 34.53873 -117.97751 18684 ft 265 kts 73°
2026-04-24 22:31 34.54330 -117.95573 18937 ft 266 kts 73°
2026-04-24 22:31 34.54781 -117.93414 19189 ft 268 kts 73°
2026-04-24 22:32 34.55241 -117.91213 19448 ft 269 kts 73°
2026-04-24 22:32 34.55702 -117.89006 19706 ft 271 kts 73°
2026-04-24 22:32 34.56164 -117.86785 19968 ft 272 kts 73°
2026-04-24 22:32 34.56631 -117.84544 20230 ft 274 kts 73°
2026-04-24 22:33 34.56948 -117.83024 20413 ft 275 kts 73°
2026-04-24 22:33 34.57412 -117.80791 20684 ft 277 kts 73°
2026-04-24 22:33 34.58048 -117.77738 20863 ft 287 kts 73°
2026-04-24 22:33 34.58540 -117.75358 20912 ft 294 kts 73°
2026-04-24 22:34 34.58880 -117.73715 20914 ft 299 kts 73°
2026-04-24 22:34 34.59383 -117.71281 20928 ft 303 kts 73°
2026-04-24 22:34 34.59900 -117.68784 20931 ft 305 kts 73°
2026-04-24 22:34 34.60417 -117.66282 20935 ft 306 kts 73°
2026-04-24 22:35 34.60936 -117.63766 20944 ft 307 kts 73°
2026-04-24 22:35 34.61454 -117.61250 20950 ft 307 kts 73°
2026-04-24 22:35 34.61974 -117.58726 20955 ft 307 kts 73°
2026-04-24 22:35 34.62493 -117.56207 20959 ft 307 kts 73°
2026-04-24 22:36 34.63004 -117.53721 20964 ft 308 kts 73°
2026-04-24 22:36 34.63521 -117.51199 20970 ft 308 kts 73°
2026-04-24 22:36 34.64039 -117.48670 20976 ft 307 kts 73°
2026-04-24 22:36 34.64557 -117.46141 20974 ft 307 kts 73°
2026-04-24 22:37 34.65069 -117.43641 20979 ft 307 kts 73°
2026-04-24 22:37 34.65583 -117.41122 20975 ft 306 kts 73°
2026-04-24 22:37 34.66099 -117.38598 20977 ft 308 kts 73°
2026-04-24 22:37 34.66618 -117.36059 20935 ft 310 kts 73°
2026-04-24 22:38 34.67129 -117.33546 20937 ft 310 kts 73°
2026-04-24 22:38 34.67645 -117.31001 20933 ft 309 kts 73°
2026-04-24 22:38 34.68163 -117.28457 20920 ft 309 kts 73°
2026-04-24 22:38 34.68680 -117.25909 20914 ft 309 kts 73°
2026-04-24 22:39 34.69194 -117.23369 20913 ft 309 kts 73°
2026-04-24 22:39 34.69708 -117.20834 20902 ft 308 kts 73°
2026-04-24 22:39 34.70217 -117.18321 20896 ft 309 kts 73°
2026-04-24 22:39 34.70727 -117.15795 20886 ft 309 kts 73°
2026-04-24 22:40 34.71241 -117.13245 20867 ft 309 kts 73°
2026-04-24 22:40 34.71752 -117.10710 20869 ft 308 kts 73°
2026-04-24 22:40 34.72266 -117.08162 20827 ft 309 kts 73°
2026-04-24 22:40 34.72769 -117.05658 20829 ft 309 kts 73°
2026-04-24 22:41 34.73280 -117.03127 20837 ft 307 kts 71°
2026-04-24 22:41 34.74181 -117.00819 20837 ft 298 kts 49°
2026-04-24 22:41 34.75452 -116.98836 20837 ft 296 kts 45°
2026-04-24 22:41 34.76674 -116.96802 20832 ft 300 kts 51°
2026-04-24 22:42 34.77759 -116.94651 20848 ft 301 kts 54°
2026-04-24 22:42 34.78841 -116.92462 20843 ft 300 kts 52°
2026-04-24 22:42 34.79975 -116.90338 20847 ft 299 kts 51°
2026-04-24 22:42 34.81110 -116.88211 20850 ft 299 kts 52°
2026-04-24 22:43 34.82223 -116.86067 20853 ft 299 kts 52°
2026-04-24 22:43 34.83339 -116.83915 20845 ft 299 kts 52°
2026-04-24 22:43 34.84442 -116.81806 20852 ft 299 kts 51°
2026-04-24 22:43 34.85563 -116.79665 20852 ft 299 kts 51°
2026-04-24 22:44 34.86678 -116.77527 20847 ft 299 kts 52°
2026-04-24 22:44 34.87797 -116.75379 20851 ft 299 kts 52°
2026-04-24 22:44 34.88897 -116.73267 20847 ft 299 kts 51°
2026-04-24 22:44 34.90009 -116.71132 20849 ft 299 kts 51°
2026-04-24 22:45 34.91126 -116.68986 20841 ft 298 kts 52°
2026-04-24 22:45 34.92237 -116.66849 20847 ft 299 kts 52°
2026-04-24 22:45 34.93349 -116.64710 20839 ft 298 kts 52°
2026-04-24 22:45 34.94461 -116.62569 20841 ft 298 kts 52°
2026-04-24 22:46 34.95557 -116.60458 20836 ft 298 kts 52°
2026-04-24 22:46 34.96670 -116.58313 20832 ft 298 kts 52°
2026-04-24 22:46 34.97778 -116.56175 20830 ft 298 kts 52°
2026-04-24 22:46 34.98889 -116.54030 20824 ft 298 kts 52°
2026-04-24 22:47 34.99987 -116.51910 20826 ft 298 kts 52°
2026-04-24 22:47 35.01097 -116.49767 20826 ft 298 kts 52°
2026-04-24 22:47 35.02205 -116.47625 20820 ft 298 kts 52°
2026-04-24 22:47 35.03308 -116.45490 20820 ft 298 kts 52°
2026-04-24 22:48 35.04418 -116.43340 20824 ft 298 kts 52°
2026-04-24 22:48 35.05524 -116.41201 20820 ft 298 kts 52°
2026-04-24 22:48 35.06626 -116.39065 20819 ft 298 kts 52°
2026-04-24 22:48 35.07719 -116.36944 20814 ft 298 kts 52°
2026-04-24 22:49 35.08821 -116.34805 20815 ft 298 kts 52°
2026-04-24 22:49 35.09926 -116.32662 20815 ft 298 kts 52°
2026-04-24 22:49 35.11029 -116.30520 20808 ft 296 kts 53°
2026-04-24 22:49 35.12122 -116.28392 20810 ft 296 kts 52°
2026-04-24 22:50 35.13221 -116.26255 20813 ft 297 kts 52°
2026-04-24 22:50 35.14319 -116.24118 20815 ft 297 kts 51°
2026-04-24 22:50 35.15421 -116.21974 20814 ft 297 kts 52°
2026-04-24 22:50 35.16517 -116.19835 20816 ft 297 kts 52°
2026-04-24 22:51 35.17618 -116.17689 20814 ft 297 kts 52°
2026-04-24 22:51 35.18698 -116.15577 20816 ft 297 kts 52°
2026-04-24 22:51 35.19796 -116.13441 20818 ft 297 kts 52°
2026-04-24 22:51 35.20905 -116.11275 20821 ft 297 kts 52°
2026-04-24 22:52 35.21982 -116.09166 20827 ft 296 kts 52°
2026-04-24 22:52 35.23077 -116.07024 20823 ft 296 kts 52°
2026-04-24 22:52 35.24170 -116.04885 20827 ft 296 kts 52°
2026-04-24 22:52 35.25264 -116.02744 20827 ft 296 kts 52°
2026-04-24 22:53 35.26356 -116.00604 20832 ft 296 kts 52°
2026-04-24 22:53 35.27456 -115.98448 20512 ft 298 kts 52°
2026-04-24 22:53 35.28527 -115.96333 20105 ft 293 kts 52°
2026-04-24 22:53 35.29614 -115.94204 19696 ft 295 kts 52°
2026-04-24 22:54 35.30705 -115.92067 19294 ft 291 kts 52°
2026-04-24 22:54 35.31764 -115.89978 18899 ft 286 kts 52°
2026-04-24 22:54 35.32807 -115.87925 18502 ft 282 kts 52°
2026-04-24 22:54 35.33833 -115.85911 18109 ft 279 kts 52°
2026-04-24 22:55 35.34853 -115.83902 17669 ft 276 kts 53°
2026-04-24 22:55 35.35863 -115.81911 17227 ft 273 kts 53°
2026-04-24 22:55 35.36855 -115.79947 16789 ft 269 kts 53°
2026-04-24 22:55 35.37844 -115.78008 16352 ft 266 kts 53°
2026-04-24 22:56 35.38814 -115.76098 15931 ft 263 kts 53°
2026-04-24 22:56 35.39769 -115.74208 15507 ft 260 kts 54°
2026-04-24 22:56 35.40714 -115.72338 15090 ft 256 kts 54°
2026-04-24 22:56 35.41638 -115.70511 14687 ft 253 kts 54°
2026-04-24 22:57 35.42564 -115.68682 14276 ft 250 kts 54°
2026-04-24 22:57 35.43475 -115.66879 13878 ft 247 kts 55°
2026-04-24 22:57 35.44364 -115.65113 13428 ft 240 kts 55°
2026-04-24 22:57 35.45238 -115.63385 12955 ft 237 kts 55°
2026-04-24 22:58 35.46102 -115.61677 12487 ft 233 kts 56°
2026-04-24 22:58 35.46939 -115.60016 12036 ft 231 kts 56°
2026-04-24 22:58 35.47794 -115.58320 11578 ft 229 kts 56°
2026-04-24 22:58 35.48618 -115.56685 11136 ft 227 kts 56°
2026-04-24 22:59 35.49427 -115.55074 10994 ft 214 kts 56°
2026-04-24 22:59 35.50199 -115.53548 10999 ft 207 kts 56°
2026-04-24 22:59 35.51706 -115.50555 10995 ft 204 kts 57°
2026-04-24 23:00 35.52535 -115.49184 10991 ft 201 kts 43°
2026-04-24 23:00 35.53554 -115.48011 10991 ft 201 kts 41°
2026-04-24 23:00 35.54536 -115.46779 10990 ft 201 kts 45°
2026-04-24 23:00 35.55484 -115.45508 10993 ft 202 kts 45°
2026-04-24 23:01 35.56444 -115.44245 10990 ft 202 kts 44°
2026-04-24 23:01 35.57405 -115.42988 10993 ft 201 kts 45°
2026-04-24 23:01 35.58350 -115.41739 10998 ft 202 kts 45°
2026-04-24 23:01 35.59308 -115.40474 10997 ft 202 kts 45°
2026-04-24 23:02 35.60264 -115.39212 10995 ft 201 kts 45°
2026-04-24 23:02 35.61224 -115.37946 10995 ft 201 kts 45°
2026-04-24 23:02 35.62166 -115.36703 10997 ft 202 kts 45°
2026-04-24 23:02 35.63125 -115.35437 10991 ft 201 kts 45°
2026-04-24 23:03 35.64082 -115.34173 10992 ft 201 kts 45°
2026-04-24 23:03 35.65040 -115.32908 10754 ft 200 kts 45°
2026-04-24 23:03 35.65977 -115.31662 10401 ft 198 kts 45°
2026-04-24 23:03 35.66880 -115.30461 9937 ft 190 kts 45°
2026-04-24 23:04 35.67782 -115.29271 9418 ft 188 kts 45°
2026-04-24 23:04 35.68657 -115.28115 8910 ft 186 kts 45°
2026-04-24 23:04 35.69538 -115.26950 8385 ft 185 kts 45°
2026-04-24 23:04 35.70408 -115.25796 7941 ft 181 kts 45°
2026-04-24 23:05 35.71256 -115.24672 7754 ft 172 kts 45°
2026-04-24 23:05 35.72053 -115.23626 7757 ft 166 kts 45°
2026-04-24 23:05 35.72835 -115.22592 7667 ft 166 kts 45°
2026-04-24 23:05 35.73623 -115.21545 7584 ft 167 kts 45°
2026-04-24 23:06 35.74412 -115.20497 7531 ft 166 kts 45°
2026-04-24 23:06 35.75182 -115.19476 7510 ft 164 kts 45°
2026-04-24 23:06 35.75955 -115.18450 7495 ft 162 kts 45°
2026-04-24 23:06 35.76726 -115.17428 7488 ft 161 kts 44°
2026-04-24 23:07 35.77493 -115.16411 7484 ft 162 kts 45°
2026-04-24 23:07 35.78243 -115.15398 7484 ft 163 kts 46°
2026-04-24 23:07 35.79054 -115.14302 7494 ft 182 kts 46°
2026-04-24 23:07 35.79932 -115.13108 7504 ft 193 kts 46°
2026-04-24 23:08 35.80850 -115.11859 7498 ft 198 kts 46°
2026-04-24 23:08 35.81781 -115.10593 7496 ft 200 kts 46°
2026-04-24 23:08 35.82713 -115.09330 7499 ft 199 kts 46°
2026-04-24 23:08 35.83637 -115.08077 7498 ft 200 kts 45°
2026-04-24 23:09 35.84572 -115.06805 7491 ft 200 kts 46°
2026-04-24 23:09 35.85509 -115.05535 7493 ft 200 kts 46°
2026-04-24 23:09 35.86445 -115.04264 7506 ft 200 kts 46°
2026-04-24 23:09 35.87378 -115.02987 7502 ft 200 kts 47°
2026-04-24 23:10 35.88212 -115.01854 7499 ft 199 kts 46°
2026-04-24 23:10 35.89157 -115.00577 7467 ft 198 kts 46°
2026-04-24 23:10 35.90085 -114.99312 7465 ft 199 kts 46°
2026-04-24 23:10 35.91017 -114.98042 7463 ft 200 kts 46°
2026-04-24 23:11 35.91956 -114.96763 7467 ft 200 kts 46°
2026-04-24 23:11 35.92882 -114.95506 7464 ft 201 kts 46°
2026-04-24 23:11 35.93840 -114.94201 7226 ft 209 kts 46°
2026-04-24 23:11 35.94825 -114.92855 6948 ft 212 kts 46°
2026-04-24 23:12 35.95814 -114.91506 6662 ft 211 kts 43°
2026-04-24 23:12 35.97088 -114.90722 6290 ft 206 kts
2026-04-24 23:12 35.98457 -114.91026 5870 ft 202 kts 341°
2026-04-24 23:12 35.99815 -114.91509 5426 ft 203 kts 344°
2026-04-24 23:13 36.01192 -114.91899 4987 ft 203 kts 347°
2026-04-24 23:13 36.02566 -114.92253 4551 ft 201 kts 346°
2026-04-24 23:13 36.03932 -114.92615 4106 ft 200 kts 346°
2026-04-24 23:13 36.05295 -114.92980 3658 ft 200 kts 346°
2026-04-24 23:14 36.06637 -114.93338 3227 ft 198 kts 346°
2026-04-24 23:14 36.07994 -114.93698 2854 ft 199 kts 346°
2026-04-24 23:14 36.09343 -114.94059 2455 ft 200 kts 343°
2026-04-24 23:14 36.10714 -114.94427 2058 ft 199 kts 347°
2026-04-24 23:15 36.12043 -114.94781 1974 ft 192 kts 346°
2026-04-24 23:15 36.13267 -114.95106 2319 ft 170 kts 343°
2026-04-24 23:15 36.14399 -114.95416 2626 ft 163 kts 345°
2026-04-24 23:15 36.15474 -114.95703 2913 ft 158 kts 346°
2026-04-24 23:16 36.16548 -114.95992 3249 ft 157 kts 345°
2026-04-24 23:16 36.17606 -114.96275 3605 ft 153 kts 345°
2026-04-24 23:16 36.17727 -114.96307 3642 ft 152 kts 344°